Time,TemperatureF,DewpointF,PressureIn,WindDirection,WindDirectionDegrees,WindSpeedMPH,WindSpeedGustMPH,Humidity,HourlyPrecipIn,Conditions,Clouds,dailyrainin,SoftwareType,DateUTC
2013-09-19 00:00:00,60.7,59.8,27.81,SE,145,2.0,3.0,97,0.00,,---,0.00,VWS V14.01,2013-09-19 05:00:00,
2013-09-19 00:05:00,60.6,59.8,27.80,SE,144,0.0,0.0,97,0.00,,---,0.00,VWS V14.01,2013-09-19 05:05:00,
2013-09-19 00:10:00,60.6,59.8,27.80,SE,144,0.0,0.0,97,0.00,,---,0.00,VWS V14.01,2013-09-19 05:10:00,
2013-09-19 00:15:00,60.5,59.7,27.80,SE,146,0.0,3.0,97,0.00,,---,0.00,VWS V14.01,2013-09-19 05:15:00,
2013-09-19 00:20:00,60.5,59.7,27.80,SSE,158,0.0,3.0,97,0.00,,---,0.00,VWS V14.01,2013-09-19 05:20:00,
2013-09-19 00:25:00,60.5,59.7,27.80,SE,146,1.0,3.0,97,0.00,,---,0.00,VWS V14.01,2013-09-19 05:25:00,
2013-09-19 00:30:00,60.5,59.7,27.80,SSE,153,0.0,0.0,97,0.00,,---,0.00,VWS V14.01,2013-09-19 05:30:00,
2013-09-19 00:35:00,60.5,59.7,27.80,SSE,154,4.0,4.0,97,0.00,,---,0.00,VWS V14.01,2013-09-19 05:35:00,
2013-09-19 00:41:00,60.4,59.5,27.80,SSE,155,0.0,0.0,97,0.00,,---,0.00,VWS V14.01,2013-09-19 05:41:00,
2013-09-19 00:46:00,60.4,59.8,27.80,SSE,151,0.0,1.0,98,0.00,,---,0.00,VWS V14.01,2013-09-19 05:46:00,
2013-09-19 00:51:00,60.4,59.8,27.80,SSE,161,0.0,6.0,98,0.00,,---,0.00,VWS V14.01,2013-09-19 05:51:00,
2013-09-19 00:56:00,60.4,59.8,27.80,SSE,155,0.0,3.0,98,0.00,,---,0.00,VWS V14.01,2013-09-19 05:56:00,
2013-09-19 01:01:00,60.4,59.8,27.80,South,169,0.0,4.0,98,0.00,,---,0.00,VWS V14.01,2013-09-19 06:01:00,
2013-09-19 01:06:00,60.3,59.7,27.80,South,169,2.0,2.0,98,0.00,,---,0.00,VWS V14.01,2013-09-19 06:06:00,
2013-09-19 01:12:00,60.3,59.7,27.80,SE,136,2.0,4.0,98,0.00,,---,0.00,VWS V14.01,2013-09-19 06:12:00,
2013-09-19 01:17:00,60.2,59.6,27.80,SSE,165,6.0,6.0,98,0.00,,---,0.00,VWS V14.01,2013-09-19 06:17:00,
2013-09-19 01:22:00,60.2,59.6,27.80,SE,142,2.0,3.0,98,0.00,,---,0.00,VWS V14.01,2013-09-19 06:22:00,
2013-09-19 01:27:00,60.2,59.6,27.80,SSE,155,0.0,2.0,98,0.00,,---,0.00,VWS V14.01,2013-09-19 06:27:00,
2013-09-19 01:33:00,60.2,59.6,27.79,SE,136,4.0,4.0,98,0.00,,---,0.00,VWS V14.01,2013-09-19 06:33:00,
2013-09-19 01:38:00,60.2,59.6,27.79,SSE,148,1.0,2.0,98,0.00,,---,0.00,VWS V14.01,2013-09-19 06:38:00,
2013-09-19 01:43:00,60.2,59.6,27.79,SSE,165,2.0,3.0,98,0.00,,---,0.00,VWS V14.01,2013-09-19 06:43:00,
2013-09-19 01:48:00,60.2,59.6,27.80,SSE,160,3.0,5.0,98,0.00,,---,0.00,VWS V14.01,2013-09-19 06:48:00,
2013-09-19 01:53:00,60.2,59.6,27.80,SSE,162,2.0,2.0,98,0.00,,---,0.00,VWS V14.01,2013-09-19 06:53:00,
2013-09-19 01:59:00,60.2,59.6,27.80,SSE,161,0.0,0.0,98,0.00,,---,0.00,VWS V14.01,2013-09-19 06:59:00,
2013-09-19 02:04:00,60.2,59.6,27.80,SSE,158,4.0,4.0,98,0.00,,---,0.00,VWS V14.01,2013-09-19 07:04:00,
2013-09-19 02:09:00,60.2,59.6,27.80,SSE,148,0.0,0.0,98,0.00,,---,0.00,VWS V14.01,2013-09-19 07:09:00,
2013-09-19 02:14:00,60.3,59.7,27.80,South,177,0.0,5.0,98,0.00,,---,0.00,VWS V14.01,2013-09-19 07:14:00,
2013-09-19 02:19:00,60.3,59.7,27.80,South,171,0.0,0.0,98,0.00,,---,0.00,VWS V14.01,2013-09-19 07:19:00,
2013-09-19 02:25:00,60.3,59.7,27.80,South,170,0.0,1.0,98,0.00,,---,0.00,VWS V14.01,2013-09-19 07:25:00,
2013-09-19 02:30:00,60.4,59.8,27.80,SSE,155,0.0,3.0,98,0.00,,---,0.00,VWS V14.01,2013-09-19 07:30:00,
2013-09-19 02:35:00,60.5,59.9,27.79,SSE,155,0.0,1.0,98,0.00,,---,0.00,VWS V14.01,2013-09-19 07:35:00,
2013-09-19 02:40:00,60.5,59.9,27.79,SSE,155,0.0,3.0,98,0.00,,---,0.00,VWS V14.01,2013-09-19 07:40:00,
2013-09-19 02:45:00,60.5,59.9,27.79,SSE,157,0.0,0.0,98,0.00,,---,0.00,VWS V14.01,2013-09-19 07:45:00,
2013-09-19 02:50:00,60.5,59.9,27.78,SE,143,1.0,2.0,98,0.00,,---,0.00,VWS V14.01,2013-09-19 07:50:00,
2013-09-19 02:56:00,60.5,59.9,27.78,ESE,120,4.0,4.0,98,0.00,,---,0.00,VWS V14.01,2013-09-19 07:56:00,
2013-09-19 03:01:00,60.6,60.0,27.78,SE,143,3.0,3.0,98,0.00,,---,0.00,VWS V14.01,2013-09-19 08:01:00,
2013-09-19 03:06:00,60.5,59.9,27.78,South,170,6.0,6.0,98,0.00,,---,0.00,VWS V14.01,2013-09-19 08:06:00,
2013-09-19 03:11:00,60.5,59.9,27.78,SSE,158,1.0,2.0,98,0.00,,---,0.00,VWS V14.01,2013-09-19 08:11:00,
2013-09-19 03:17:00,60.5,59.9,27.78,SE,126,1.0,1.0,98,0.00,,---,0.00,VWS V14.01,2013-09-19 08:17:00,
2013-09-19 03:22:00,60.5,59.9,27.78,SE,145,1.0,2.0,98,0.00,,---,0.00,VWS V14.01,2013-09-19 08:22:00,
2013-09-19 03:27:00,60.5,59.9,27.78,SSE,161,1.0,3.0,98,0.00,,---,0.00,VWS V14.01,2013-09-19 08:27:00,
2013-09-19 03:32:00,60.5,59.9,27.77,SSE,158,2.0,2.0,98,0.00,,---,0.00,VWS V14.01,2013-09-19 08:32:00,
2013-09-19 03:38:00,60.5,59.9,27.77,SSE,162,0.0,2.0,98,0.00,,---,0.00,VWS V14.01,2013-09-19 08:38:00,
2013-09-19 03:43:00,60.5,59.9,27.77,SSE,152,0.0,2.0,98,0.00,,---,0.00,VWS V14.01,2013-09-19 08:43:00,
2013-09-19 03:48:00,60.6,60.0,27.77,ESE,106,1.0,4.0,98,0.00,,---,0.00,VWS V14.01,2013-09-19 08:48:00,
2013-09-19 03:53:00,60.7,60.1,27.77,SSE,152,2.0,2.0,98,0.00,,---,0.00,VWS V14.01,2013-09-19 08:53:00,
2013-09-19 03:58:00,60.8,60.2,27.77,SSE,157,3.0,4.0,98,0.00,,---,0.00,VWS V14.01,2013-09-19 08:58:00,
2013-09-19 04:03:00,60.8,60.2,27.77,SSE,157,1.0,3.0,98,0.00,,---,0.00,VWS V14.01,2013-09-19 09:03:00,
2013-09-19 04:08:00,60.8,60.2,27.77,SE,145,1.0,1.0,98,0.00,,---,0.00,VWS V14.01,2013-09-19 09:08:00,
2013-09-19 04:14:00,60.9,60.3,27.77,ESE,121,1.0,2.0,98,0.00,,---,0.00,VWS V14.01,2013-09-19 09:14:00,
2013-09-19 04:19:00,60.9,60.3,27.77,SE,136,1.0,2.0,98,0.00,,---,0.00,VWS V14.01,2013-09-19 09:19:00,
2013-09-19 04:24:00,60.9,60.3,27.77,SE,146,0.0,3.0,98,0.00,,---,0.00,VWS V14.01,2013-09-19 09:24:00,
2013-09-19 04:29:00,60.9,60.3,27.77,SSE,149,0.0,1.0,98,0.00,,---,0.00,VWS V14.01,2013-09-19 09:29:00,
2013-09-19 04:34:00,60.9,60.3,27.76,SE,132,3.0,3.0,98,0.00,,---,0.00,VWS V14.01,2013-09-19 09:34:00,
2013-09-19 04:39:00,60.8,60.2,27.76,SSE,159,0.0,0.0,98,0.00,,---,0.00,VWS V14.01,2013-09-19 09:39:00,
2013-09-19 04:45:00,60.8,60.2,27.76,SSE,148,0.0,2.0,98,0.00,,---,0.00,VWS V14.01,2013-09-19 09:45:00,
2013-09-19 04:50:00,60.9,60.3,27.75,SE,146,1.0,1.0,98,0.00,,---,0.00,VWS V14.01,2013-09-19 09:50:00,
2013-09-19 04:55:00,60.9,60.3,27.75,SSE,148,2.0,3.0,98,0.00,,---,0.00,VWS V14.01,2013-09-19 09:55:00,
2013-09-19 05:00:00,61.1,60.5,27.75,SSE,148,0.0,1.0,98,0.00,,---,0.00,VWS V14.01,2013-09-19 10:00:00,
2013-09-19 05:05:00,61.1,60.5,27.75,SE,143,0.0,1.0,98,0.00,,---,0.00,VWS V14.01,2013-09-19 10:05:00,
2013-09-19 05:11:00,61.1,60.8,27.75,SE,143,0.0,0.0,99,0.00,,---,0.00,VWS V14.01,2013-09-19 10:11:00,
2013-09-19 05:16:00,61.2,60.9,27.75,SE,143,0.0,0.0,99,0.00,,---,0.00,VWS V14.01,2013-09-19 10:16:00,
2013-09-19 05:21:00,61.3,60.7,27.75,SE,143,0.0,1.0,98,0.00,,---,0.00,VWS V14.01,2013-09-19 10:21:00,
2013-09-19 05:26:00,61.4,60.8,27.75,SE,143,0.0,0.0,98,0.00,,---,0.00,VWS V14.01,2013-09-19 10:26:00,
2013-09-19 05:31:00,61.5,60.9,27.75,SE,143,0.0,2.0,98,0.00,,---,0.00,VWS V14.01,2013-09-19 10:31:00,
2013-09-19 05:36:00,61.5,60.9,27.75,SE,143,0.0,0.0,98,0.00,,---,0.00,VWS V14.01,2013-09-19 10:36:00,
2013-09-19 05:42:00,61.6,61.0,27.75,SE,143,0.0,0.0,98,0.00,,---,0.00,VWS V14.01,2013-09-19 10:42:00,
2013-09-19 05:47:00,61.6,61.3,27.75,SE,143,0.0,0.0,99,0.00,,---,0.00,VWS V14.01,2013-09-19 10:47:00,
2013-09-19 05:52:00,61.6,61.3,27.75,SE,143,0.0,0.0,99,0.00,,---,0.00,VWS V14.01,2013-09-19 10:52:00,
2013-09-19 05:57:00,61.6,61.3,27.75,SE,144,0.0,3.0,99,0.00,,---,0.00,VWS V14.01,2013-09-19 10:57:00,
2013-09-19 06:02:00,61.6,61.3,27.76,SE,144,0.0,0.0,99,0.00,,---,0.00,VWS V14.01,2013-09-19 11:02:00,
2013-09-19 06:07:00,61.7,61.4,27.76,NW,313,4.0,8.0,99,0.00,,---,0.00,VWS V14.01,2013-09-19 11:07:00,
2013-09-19 06:12:00,61.6,61.3,27.76,NW,320,2.0,3.0,99,0.00,,---,0.00,VWS V14.01,2013-09-19 11:12:00,
2013-09-19 06:18:00,61.6,61.3,27.78,NNW,347,0.0,0.0,99,0.00,,---,0.00,VWS V14.01,2013-09-19 11:18:00,
2013-09-19 06:23:00,61.6,61.3,27.78,NNW,347,0.0,2.0,99,0.00,,---,0.00,VWS V14.01,2013-09-19 11:23:00,
2013-09-19 06:28:00,61.6,61.0,27.78,NNW,347,0.0,0.0,98,0.00,,---,0.00,VWS V14.01,2013-09-19 11:28:00,
2013-09-19 06:33:00,61.5,60.9,27.78,NNW,347,0.0,0.0,98,0.00,,---,0.00,VWS V14.01,2013-09-19 11:33:00,
2013-09-19 06:38:00,61.5,60.9,27.78,NNW,347,0.0,0.0,98,0.00,,---,0.00,VWS V14.01,2013-09-19 11:38:00,
2013-09-19 06:43:00,61.4,61.1,27.78,NNW,347,0.0,0.0,99,0.00,,---,0.00,VWS V14.01,2013-09-19 11:43:00,
2013-09-19 06:49:00,61.4,61.1,27.78,NNW,347,0.0,0.0,99,0.00,,---,0.00,VWS V14.01,2013-09-19 11:49:00,
2013-09-19 06:54:00,61.4,61.1,27.78,North,9,0.0,0.0,99,0.00,,---,0.00,VWS V14.01,2013-09-19 11:54:00,
2013-09-19 06:59:00,61.4,61.1,27.78,ESE,106,2.0,4.0,99,0.00,,---,0.00,VWS V14.01,2013-09-19 11:59:00,
2013-09-19 07:04:00,61.4,61.1,27.78,ESE,106,0.0,2.0,99,0.00,,---,0.00,VWS V14.01,2013-09-19 12:04:00,
2013-09-19 07:09:00,61.5,61.2,27.78,SE,143,1.0,1.0,99,0.00,,---,0.00,VWS V14.01,2013-09-19 12:09:00,
2013-09-19 07:14:00,61.6,61.3,27.78,SE,142,0.0,3.0,99,0.00,,---,0.00,VWS V14.01,2013-09-19 12:14:00,
2013-09-19 07:19:00,61.7,61.4,27.77,East,82,1.0,1.0,99,0.00,,---,0.00,VWS V14.01,2013-09-19 12:19:00,
2013-09-19 07:25:00,61.7,61.4,27.77,ESE,121,0.0,2.0,99,0.00,,---,0.00,VWS V14.01,2013-09-19 12:25:00,
2013-09-19 07:30:00,61.7,61.4,27.77,SE,132,3.0,3.0,99,0.00,,---,0.00,VWS V14.01,2013-09-19 12:30:00,
2013-09-19 07:35:00,61.7,61.4,27.77,SE,130,4.0,4.0,99,0.00,,---,0.00,VWS V14.01,2013-09-19 12:35:00,
2013-09-19 07:40:00,61.7,61.4,27.77,NE,53,0.0,4.0,99,0.00,,---,0.00,VWS V14.01,2013-09-19 12:40:00,
2013-09-19 07:45:00,61.8,61.5,27.77,East,79,2.0,5.0,99,0.00,,---,0.00,VWS V14.01,2013-09-19 12:45:00,
2013-09-19 07:50:00,61.8,61.5,27.77,ESE,113,4.0,5.0,99,0.00,,---,0.00,VWS V14.01,2013-09-19 12:50:00,
2013-09-19 07:55:00,61.9,61.6,27.77,SE,126,3.0,3.0,99,0.00,,---,0.00,VWS V14.01,2013-09-19 12:55:00,
2013-09-19 08:00:00,62.1,61.8,27.77,East,95,1.0,6.0,99,0.00,,---,0.00,VWS V14.01,2013-09-19 13:00:00,
2013-09-19 08:05:00,62.0,61.7,27.75,ESE,119,3.0,10.0,99,0.00,,---,0.00,VWS V14.01,2013-09-19 13:05:00,
2013-09-19 08:10:00,62.1,61.8,27.75,East,88,2.0,6.0,99,0.00,,---,0.00,VWS V14.01,2013-09-19 13:10:00,
2013-09-19 08:15:00,62.1,61.8,27.75,SE,132,1.0,4.0,99,0.00,,---,0.00,VWS V14.01,2013-09-19 13:15:00,
2013-09-19 08:20:00,62.0,61.7,27.75,SSE,157,4.0,6.0,99,0.00,,---,0.00,VWS V14.01,2013-09-19 13:20:00,
2013-09-19 08:25:00,62.0,61.7,27.75,SE,134,3.0,3.0,99,0.00,,---,0.00,VWS V14.01,2013-09-19 13:25:00,
2013-09-19 08:31:00,62.0,61.7,27.75,SE,141,1.0,4.0,99,0.00,,---,0.00,VWS V14.01,2013-09-19 13:31:00,
2013-09-19 08:36:00,62.0,61.4,27.75,SSE,148,1.0,3.0,98,0.00,,---,0.00,VWS V14.01,2013-09-19 13:36:00,
2013-09-19 08:41:00,62.0,61.4,27.75,SE,145,4.0,8.0,98,0.00,,---,0.00,VWS V14.01,2013-09-19 13:41:00,
2013-09-19 08:46:00,62.1,61.5,27.75,SSE,157,5.0,8.0,98,0.00,,---,0.00,VWS V14.01,2013-09-19 13:46:00,
2013-09-19 08:51:00,62.3,62.0,27.73,ESE,122,5.0,7.0,99,0.00,,---,0.00,VWS V14.01,2013-09-19 13:51:00,
2013-09-19 08:56:00,62.4,61.8,27.73,SSE,155,5.0,7.0,98,0.00,,---,0.00,VWS V14.01,2013-09-19 13:56:00,
2013-09-19 09:01:00,62.5,61.9,27.73,South,172,1.0,3.0,98,0.00,,---,0.00,VWS V14.01,2013-09-19 14:01:00,
2013-09-19 09:06:00,62.6,62.0,27.74,ENE,78,3.0,3.0,98,0.00,,---,0.00,VWS V14.01,2013-09-19 14:06:00,
2013-09-19 09:11:00,62.6,62.0,27.74,SE,136,4.0,4.0,98,0.00,,---,0.00,VWS V14.01,2013-09-19 14:11:00,
2013-09-19 09:17:00,62.7,62.1,27.74,SSE,151,4.0,7.0,98,0.00,,---,0.00,VWS V14.01,2013-09-19 14:17:00,
2013-09-19 09:22:00,62.9,62.3,27.74,ENE,69,2.0,7.0,98,0.00,,---,0.00,VWS V14.01,2013-09-19 14:22:00,
2013-09-19 09:27:00,63.1,62.5,27.74,ESE,119,5.0,5.0,98,0.00,,---,0.00,VWS V14.01,2013-09-19 14:27:00,
2013-09-19 09:32:00,63.3,62.7,27.74,South,174,5.0,5.0,98,0.00,,---,0.00,VWS V14.01,2013-09-19 14:32:00,
2013-09-19 09:37:00,63.5,62.9,27.74,SSE,167,6.0,7.0,98,0.00,,---,0.00,VWS V14.01,2013-09-19 14:37:00,
2013-09-19 09:42:00,63.6,63.0,27.74,SSE,152,3.0,11.0,98,0.00,,---,0.00,VWS V14.01,2013-09-19 14:42:00,
2013-09-19 09:47:00,63.7,63.1,27.74,SE,132,4.0,8.0,98,0.00,,---,0.00,VWS V14.01,2013-09-19 14:47:00,
2013-09-19 09:53:00,63.9,63.0,27.74,SE,130,3.0,9.0,97,0.00,,---,0.00,VWS V14.01,2013-09-19 14:53:00,
2013-09-19 09:58:00,63.9,63.0,27.74,SSE,148,3.0,5.0,97,0.00,,---,0.00,VWS V14.01,2013-09-19 14:58:00,
2013-09-19 10:03:00,63.9,63.0,27.74,SSE,155,3.0,5.0,97,0.00,,---,0.00,VWS V14.01,2013-09-19 15:03:00,
2013-09-19 10:08:00,63.8,62.9,27.74,ESE,120,2.0,5.0,97,0.00,,---,0.00,VWS V14.01,2013-09-19 15:08:00,
2013-09-19 10:13:00,63.8,62.9,27.74,SSE,167,4.0,7.0,97,0.00,,---,0.00,VWS V14.01,2013-09-19 15:13:00,
2013-09-19 10:18:00,63.9,63.0,27.73,SSE,156,3.0,4.0,97,0.00,,---,0.00,VWS V14.01,2013-09-19 15:18:00,
2013-09-19 10:23:00,63.9,63.0,27.73,SSE,150,6.0,6.0,97,0.00,,---,0.00,VWS V14.01,2013-09-19 15:23:00,
2013-09-19 10:29:00,63.9,63.0,27.73,SE,146,0.0,1.0,97,0.00,,---,0.00,VWS V14.01,2013-09-19 15:29:00,
2013-09-19 10:34:00,64.0,63.1,27.72,South,190,6.0,7.0,97,0.00,,---,0.00,VWS V14.01,2013-09-19 15:34:00,
2013-09-19 10:39:00,64.0,63.1,27.72,SSE,163,5.0,5.0,97,0.00,,---,0.00,VWS V14.01,2013-09-19 15:39:00,
2013-09-19 10:44:00,64.0,63.1,27.72,SSE,151,0.0,8.0,97,0.00,,---,0.00,VWS V14.01,2013-09-19 15:44:00,
2013-09-19 10:49:00,63.9,63.0,27.71,SSE,159,2.0,5.0,97,0.00,,---,0.00,VWS V14.01,2013-09-19 15:49:00,
2013-09-19 10:54:00,63.8,62.9,27.71,East,86,2.0,3.0,97,0.00,,---,0.00,VWS V14.01,2013-09-19 15:54:00,
2013-09-19 10:59:00,63.8,62.9,27.71,SSE,157,3.0,9.0,97,0.00,,---,0.00,VWS V14.01,2013-09-19 15:59:00,
2013-09-19 11:05:00,63.8,62.9,27.71,SSE,158,4.0,4.0,97,0.00,,---,0.00,VWS V14.01,2013-09-19 16:05:00,
2013-09-19 11:10:00,63.8,63.2,27.71,SSE,163,2.0,7.0,98,0.00,,---,0.00,VWS V14.01,2013-09-19 16:10:00,
2013-09-19 11:15:00,63.9,63.3,27.71,South,175,4.0,7.0,98,0.00,,---,0.00,VWS V14.01,2013-09-19 16:15:00,
2013-09-19 11:20:00,64.0,63.4,27.74,WNW,284,2.0,7.0,98,0.00,,---,0.00,VWS V14.01,2013-09-19 16:20:00,
2013-09-19 11:26:00,64.0,63.4,27.74,West,265,3.0,10.0,98,0.00,,---,0.00,VWS V14.01,2013-09-19 16:26:00,
2013-09-19 11:31:00,63.8,62.9,27.74,WNW,288,0.0,7.0,97,0.03,,---,0.03,VWS V14.01,2013-09-19 16:31:00,
2013-09-19 12:00:00,62.1,61.2,27.77,SSW,211,0.0,2.0,97,0.33,,---,0.33,VWS V14.01,2013-09-19 17:00:00,
2013-09-19 12:05:00,61.9,61.0,27.74,SSW,211,0.0,1.0,97,0.37,,---,0.37,VWS V14.01,2013-09-19 17:05:00,
2013-09-19 12:10:00,61.8,60.9,27.74,ESE,110,3.0,4.0,97,0.40,,---,0.40,VWS V14.01,2013-09-19 17:10:00,
2013-09-19 12:16:00,61.6,60.7,27.74,South,178,0.0,1.0,97,0.42,,---,0.42,VWS V14.01,2013-09-19 17:16:00,
2013-09-19 12:21:00,61.5,60.6,27.76,South,174,0.0,2.0,97,0.43,,---,0.43,VWS V14.01,2013-09-19 17:21:00,
2013-09-19 12:26:00,61.4,60.8,27.76,South,175,0.0,0.0,98,0.42,,---,0.43,VWS V14.01,2013-09-19 17:26:00,
2013-09-19 12:32:00,61.2,60.3,27.74,South,174,0.0,2.0,97,0.40,,---,0.43,VWS V14.01,2013-09-19 17:32:00,
2013-09-19 12:37:00,61.1,60.2,27.74,SSE,166,0.0,2.0,97,0.40,,---,0.44,VWS V14.01,2013-09-19 17:37:00,
2013-09-19 12:42:00,61.0,60.4,27.74,South,169,0.0,0.0,98,0.39,,---,0.44,VWS V14.01,2013-09-19 17:42:00,
2013-09-19 12:47:00,60.9,60.3,27.74,SSE,150,1.0,4.0,98,0.35,,---,0.44,VWS V14.01,2013-09-19 17:47:00,
2013-09-19 12:52:00,60.9,60.3,27.74,SE,146,1.0,2.0,98,0.21,,---,0.44,VWS V14.01,2013-09-19 17:52:00,
2013-09-19 12:57:00,61.1,60.5,27.74,SE,146,0.0,0.0,98,0.14,,---,0.44,VWS V14.01,2013-09-19 17:57:00,
2013-09-19 13:02:00,61.4,60.8,27.70,SE,146,0.0,1.0,98,0.11,,---,0.44,VWS V14.01,2013-09-19 18:02:00,
2013-09-19 13:07:00,61.7,61.1,27.70,SE,132,0.0,1.0,98,0.05,,---,0.44,VWS V14.01,2013-09-19 18:07:00,
2013-09-19 13:13:00,62.1,61.5,27.70,SSE,167,0.0,0.0,98,0.03,,---,0.44,VWS V14.01,2013-09-19 18:13:00,
2013-09-19 13:18:00,62.2,61.6,27.72,South,169,1.0,1.0,98,0.02,,---,0.44,VWS V14.01,2013-09-19 18:18:00,
2013-09-19 13:23:00,62.3,61.7,27.72,SSE,168,0.0,1.0,98,0.01,,---,0.44,VWS V14.01,2013-09-19 18:23:00,
2013-09-19 13:28:00,62.2,61.6,27.72,SSE,167,0.0,2.0,98,0.01,,---,0.44,VWS V14.01,2013-09-19 18:28:00,
2013-09-19 13:33:00,62.4,61.8,27.71,SSE,167,0.0,0.0,98,0.00,,---,0.44,VWS V14.01,2013-09-19 18:33:00,
2013-09-19 13:38:00,62.4,61.8,27.71,SSE,165,0.0,3.0,98,0.00,,---,0.44,VWS V14.01,2013-09-19 18:38:00,
2013-09-19 13:43:00,62.5,61.9,27.71,SSE,165,0.0,0.0,98,0.00,,---,0.44,VWS V14.01,2013-09-19 18:43:00,
2013-09-19 13:48:00,62.7,62.1,27.70,SSE,165,0.0,0.0,98,0.00,,---,0.44,VWS V14.01,2013-09-19 18:48:00,
2013-09-19 13:53:00,62.8,62.2,27.70,SSE,165,0.0,0.0,98,0.07,,---,0.51,VWS V14.01,2013-09-19 18:53:00,
2013-09-19 13:58:00,62.7,62.1,27.70,NNE,18,3.0,5.0,98,0.10,,---,0.54,VWS V14.01,2013-09-19 18:58:00,
2013-09-19 14:03:00,62.5,61.9,27.70,NNE,29,0.0,0.0,98,0.10,,---,0.54,VWS V14.01,2013-09-19 19:03:00,
2013-09-19 14:09:00,62.5,61.9,27.70,ESE,118,2.0,3.0,98,0.11,,---,0.55,VWS V14.01,2013-09-19 19:09:00,
2013-09-19 14:14:00,62.4,61.8,27.70,East,90,2.0,2.0,98,0.11,,---,0.55,VWS V14.01,2013-09-19 19:14:00,
2013-09-19 14:19:00,62.3,61.7,27.69,SE,128,0.0,1.0,98,0.12,,---,0.56,VWS V14.01,2013-09-19 19:19:00,
2013-09-19 14:24:00,62.2,61.6,27.69,SE,130,3.0,3.0,98,0.12,,---,0.56,VWS V14.01,2013-09-19 19:24:00,
2013-09-19 14:29:00,62.2,61.6,27.69,East,89,1.0,5.0,98,0.12,,---,0.56,VWS V14.01,2013-09-19 19:29:00,
2013-09-19 14:34:00,62.2,61.6,27.68,SE,129,0.0,1.0,98,0.12,,---,0.56,VWS V14.01,2013-09-19 19:34:00,
2013-09-19 14:40:00,62.2,61.6,27.68,SE,129,0.0,0.0,98,0.12,,---,0.56,VWS V14.01,2013-09-19 19:40:00,
2013-09-19 14:45:00,62.2,61.6,27.68,SE,129,0.0,0.0,98,0.12,,---,0.56,VWS V14.01,2013-09-19 19:45:00,
2013-09-19 14:50:00,62.3,61.7,27.68,SE,129,0.0,1.0,98,0.12,,---,0.56,VWS V14.01,2013-09-19 19:50:00,
2013-09-19 14:55:00,62.4,61.8,27.68,SE,129,0.0,0.0,98,0.03,,---,0.56,VWS V14.01,2013-09-19 19:55:00,
2013-09-19 15:00:00,62.5,61.9,27.68,SE,129,0.0,0.0,98,0.02,,---,0.56,VWS V14.01,2013-09-19 20:00:00,
2013-09-19 15:05:00,62.5,61.9,27.68,SE,129,0.0,0.0,98,0.02,,---,0.56,VWS V14.01,2013-09-19 20:05:00,
2013-09-19 15:10:00,62.5,61.9,27.68,NE,39,2.0,4.0,98,0.01,,---,0.56,VWS V14.01,2013-09-19 20:10:00,
2013-09-19 15:16:00,62.3,61.7,27.68,NNE,29,1.0,1.0,98,0.00,,---,0.56,VWS V14.01,2013-09-19 20:16:00,
2013-09-19 15:21:00,62.1,61.5,27.68,NNE,24,1.0,2.0,98,0.01,,---,0.57,VWS V14.01,2013-09-19 20:21:00,
2013-09-19 15:26:00,61.9,61.3,27.68,NNE,24,0.0,3.0,98,0.01,,---,0.57,VWS V14.01,2013-09-19 20:26:00,
2013-09-19 15:31:00,61.8,61.2,27.68,NNE,24,0.0,0.0,98,0.02,,---,0.58,VWS V14.01,2013-09-19 20:31:00,
2013-09-19 15:52:00,61.8,61.2,27.71,South,180,2.0,8.0,98,0.40,,---,0.96,VWS V14.01,2013-09-19 20:52:00,
2013-09-19 15:57:00,61.8,61.2,27.71,SSE,163,0.0,5.0,98,0.43,,---,0.99,VWS V14.01,2013-09-19 20:57:00,
2013-09-19 16:02:00,61.8,61.2,27.71,SSE,161,0.0,0.0,98,0.46,,---,1.02,VWS V14.01,2013-09-19 21:02:00,
2013-09-19 16:08:00,61.8,61.2,27.71,SSE,161,0.0,2.0,98,0.47,,---,1.03,VWS V14.01,2013-09-19 21:08:00,
2013-09-19 16:13:00,61.8,61.2,27.71,SSE,161,0.0,1.0,98,0.49,,---,1.05,VWS V14.01,2013-09-19 21:13:00,
2013-09-19 16:18:00,61.7,61.1,27.70,SE,143,0.0,0.0,98,0.51,,---,1.07,VWS V14.01,2013-09-19 21:18:00,
2013-09-19 16:23:00,61.7,61.1,27.70,SE,143,2.0,2.0,98,0.50,,---,1.07,VWS V14.01,2013-09-19 21:23:00,
2013-09-19 16:29:00,61.7,61.1,27.70,ENE,58,0.0,0.0,98,0.51,,---,1.08,VWS V14.01,2013-09-19 21:29:00,
2013-09-19 16:34:00,61.7,61.1,27.70,ESE,115,3.0,3.0,98,0.50,,---,1.08,VWS V14.01,2013-09-19 21:34:00,
2013-09-19 16:39:00,61.7,61.1,27.70,ESE,102,2.0,5.0,98,0.51,,---,1.09,VWS V14.01,2013-09-19 21:39:00,
2013-09-19 16:44:00,61.8,61.2,27.70,ESE,123,1.0,5.0,98,0.45,,---,1.10,VWS V14.01,2013-09-19 21:44:00,
2013-09-19 16:50:00,61.7,61.1,27.71,ESE,109,0.0,1.0,98,0.24,,---,1.11,VWS V14.01,2013-09-19 21:50:00,
2013-09-19 16:55:00,61.7,61.1,27.71,ESE,109,0.0,0.0,98,0.13,,---,1.11,VWS V14.01,2013-09-19 21:55:00,
2013-09-19 17:00:00,61.6,61.0,27.71,ESE,109,0.0,3.0,98,0.12,,---,1.12,VWS V14.01,2013-09-19 22:00:00,
2013-09-19 17:05:00,61.6,61.0,27.69,ESE,108,0.0,1.0,98,0.10,,---,1.12,VWS V14.01,2013-09-19 22:05:00,
2013-09-19 17:10:00,61.5,60.9,27.69,ESE,108,1.0,1.0,98,0.09,,---,1.13,VWS V14.01,2013-09-19 22:10:00,
2013-09-19 17:15:00,61.4,60.8,27.69,SSE,150,2.0,4.0,98,0.07,,---,1.13,VWS V14.01,2013-09-19 22:15:00,
2013-09-19 17:21:00,61.3,60.7,27.70,SE,134,1.0,1.0,98,0.06,,---,1.13,VWS V14.01,2013-09-19 22:21:00,
2013-09-19 17:26:00,61.2,60.6,27.70,SE,134,0.0,0.0,98,0.05,,---,1.13,VWS V14.01,2013-09-19 22:26:00,
2013-09-19 17:31:00,61.2,60.6,27.70,SE,134,0.0,3.0,98,0.07,,---,1.15,VWS V14.01,2013-09-19 22:31:00,
2013-09-19 17:36:00,61.1,60.5,27.70,SE,134,2.0,2.0,98,0.09,,---,1.18,VWS V14.01,2013-09-19 22:36:00,
2013-09-19 17:41:00,61.1,60.8,27.70,SE,131,1.0,4.0,99,0.10,,---,1.19,VWS V14.01,2013-09-19 22:41:00,
2013-09-19 17:46:00,61.1,60.8,27.70,SE,131,0.0,0.0,99,0.10,,---,1.20,VWS V14.01,2013-09-19 22:46:00,
2013-09-19 17:51:00,61.1,60.8,27.70,SSE,151,0.0,4.0,99,0.09,,---,1.20,VWS V14.01,2013-09-19 22:51:00,
2013-09-19 17:56:00,61.1,60.8,27.70,SE,141,0.0,3.0,99,0.08,,---,1.20,VWS V14.01,2013-09-19 22:56:00,
2013-09-19 18:01:00,61.1,60.8,27.70,SE,140,0.0,0.0,99,0.08,,---,1.20,VWS V14.01,2013-09-19 23:01:00,
2013-09-19 18:06:00,61.1,60.8,27.70,SE,141,0.0,0.0,99,0.09,,---,1.21,VWS V14.01,2013-09-19 23:06:00,
2013-09-19 18:12:00,61.1,60.8,27.70,SE,142,0.0,0.0,99,0.15,,---,1.28,VWS V14.01,2013-09-19 23:12:00,
2013-09-19 18:17:00,61.1,60.8,27.70,SE,142,0.0,0.0,99,0.19,,---,1.32,VWS V14.01,2013-09-19 23:17:00,
2013-09-19 18:22:00,61.0,60.7,27.70,SE,142,0.0,0.0,99,0.21,,---,1.34,VWS V14.01,2013-09-19 23:22:00,
2013-09-19 18:27:00,60.9,60.6,27.70,SE,142,0.0,0.0,99,0.22,,---,1.35,VWS V14.01,2013-09-19 23:27:00,
2013-09-19 18:32:00,60.9,60.3,27.69,SE,142,0.0,0.0,98,0.19,,---,1.35,VWS V14.01,2013-09-19 23:32:00,
2013-09-19 18:38:00,60.9,60.3,27.69,SE,142,0.0,1.0,98,0.17,,---,1.35,VWS V14.01,2013-09-19 23:38:00,
2013-09-19 18:43:00,60.9,60.3,27.69,SE,142,0.0,1.0,98,0.16,,---,1.35,VWS V14.01,2013-09-19 23:43:00,
2013-09-19 18:48:00,60.8,60.2,27.69,SE,142,0.0,0.0,98,0.15,,---,1.35,VWS V14.01,2013-09-19 23:48:00,
2013-09-19 18:53:00,60.8,60.2,27.69,SE,142,0.0,0.0,98,0.16,,---,1.36,VWS V14.01,2013-09-19 23:53:00,
2013-09-19 18:58:00,60.8,60.2,27.69,SE,142,0.0,0.0,98,0.16,,---,1.36,VWS V14.01,2013-09-19 23:58:00,
2013-09-19 19:06:00,60.8,60.2,27.71,SE,142,0.0,0.0,98,0.15,,---,1.36,VWS V14.01,2013-09-20 00:06:00,
2013-09-19 19:20:00,60.7,60.1,27.70,SE,142,0.0,0.0,98,0.04,,---,1.36,VWS V14.01,2013-09-20 00:20:00,
2013-09-19 19:25:00,60.7,60.1,27.70,SE,142,1.0,2.0,98,0.02,,---,1.36,VWS V14.01,2013-09-20 00:25:00,
2013-09-19 19:30:00,60.7,60.4,27.70,SE,142,0.0,0.0,99,0.01,,---,1.36,VWS V14.01,2013-09-20 00:30:00,
2013-09-19 19:35:00,60.7,60.4,27.70,SE,142,0.0,0.0,99,0.01,,---,1.36,VWS V14.01,2013-09-20 00:35:00,
2013-09-19 19:40:00,60.6,60.3,27.70,SE,142,0.0,0.0,99,0.01,,---,1.36,VWS V14.01,2013-09-20 00:40:00,
2013-09-19 19:46:00,60.6,60.3,27.70,SE,142,0.0,0.0,99,0.01,,---,1.36,VWS V14.01,2013-09-20 00:46:00,
2013-09-19 19:51:00,60.5,60.2,27.70,SE,142,0.0,0.0,99,0.02,,---,1.37,VWS V14.01,2013-09-20 00:51:00,
2013-09-19 19:56:00,60.5,60.2,27.70,SE,142,0.0,0.0,99,0.01,,---,1.37,VWS V14.01,2013-09-20 00:56:00,
2013-09-19 20:01:00,60.5,60.2,27.70,SE,142,0.0,0.0,99,0.01,,---,1.37,VWS V14.01,2013-09-20 01:01:00,
2013-09-19 20:06:00,60.5,60.2,27.71,SE,142,0.0,0.0,99,0.01,,---,1.37,VWS V14.01,2013-09-20 01:06:00,
2013-09-19 20:12:00,60.4,60.1,27.71,SE,142,0.0,1.0,99,0.01,,---,1.37,VWS V14.01,2013-09-20 01:12:00,
2013-09-19 20:17:00,60.4,60.1,27.71,SE,142,0.0,0.0,99,0.01,,---,1.37,VWS V14.01,2013-09-20 01:17:00,
2013-09-19 20:22:00,60.3,60.0,27.71,SE,142,0.0,0.0,99,0.01,,---,1.37,VWS V14.01,2013-09-20 01:22:00,
2013-09-19 20:27:00,60.3,60.0,27.71,SE,142,0.0,0.0,99,0.01,,---,1.37,VWS V14.01,2013-09-20 01:27:00,
2013-09-19 20:32:00,60.2,59.9,27.71,SE,142,0.0,0.0,99,0.01,,---,1.37,VWS V14.01,2013-09-20 01:32:00,
2013-09-19 20:37:00,60.2,59.9,27.71,SE,142,0.0,0.0,99,0.01,,---,1.37,VWS V14.01,2013-09-20 01:37:00,
2013-09-19 20:42:00,60.2,59.9,27.71,SE,142,0.0,0.0,99,0.01,,---,1.37,VWS V14.01,2013-09-20 01:42:00,
2013-09-19 20:48:00,60.2,59.9,27.69,SE,142,0.0,0.0,99,0.01,,---,1.37,VWS V14.01,2013-09-20 01:48:00,
2013-09-19 20:53:00,60.2,59.9,27.69,SE,142,0.0,2.0,99,0.00,,---,1.37,VWS V14.01,2013-09-20 01:53:00,
2013-09-19 20:58:00,60.2,59.9,27.69,SSE,148,1.0,3.0,99,0.00,,---,1.37,VWS V14.01,2013-09-20 01:58:00,
2013-09-19 21:03:00,60.1,59.8,27.69,SSE,148,1.0,1.0,99,0.00,,---,1.37,VWS V14.01,2013-09-20 02:03:00,
2013-09-19 21:08:00,60.1,59.8,27.69,SSE,148,0.0,0.0,99,0.00,,---,1.37,VWS V14.01,2013-09-20 02:08:00,
2013-09-19 21:13:00,60.2,59.9,27.69,SSE,149,3.0,3.0,99,0.00,,---,1.37,VWS V14.01,2013-09-20 02:13:00,
2013-09-19 21:18:00,60.2,59.9,27.68,SSE,149,0.0,0.0,99,0.00,,---,1.37,VWS V14.01,2013-09-20 02:18:00,
2013-09-19 21:23:00,60.1,59.8,27.68,SSE,165,1.0,1.0,99,0.01,,---,1.38,VWS V14.01,2013-09-20 02:23:00,
2013-09-19 21:29:00,60.1,59.8,27.68,SSE,165,0.0,0.0,99,0.01,,---,1.38,VWS V14.01,2013-09-20 02:29:00,
2013-09-19 21:34:00,60.2,59.9,27.68,South,173,0.0,3.0,99,0.01,,---,1.38,VWS V14.01,2013-09-20 02:34:00,
2013-09-19 21:39:00,60.2,59.9,27.68,South,173,0.0,1.0,99,0.01,,---,1.38,VWS V14.01,2013-09-20 02:39:00,
2013-09-19 21:44:00,60.3,60.0,27.68,SW,224,0.0,0.0,99,0.01,,---,1.38,VWS V14.01,2013-09-20 02:44:00,
2013-09-19 21:49:00,60.4,60.1,27.68,South,177,2.0,5.0,99,0.01,,---,1.38,VWS V14.01,2013-09-20 02:49:00,
2013-09-19 21:54:00,60.4,60.1,27.68,SSW,195,2.0,2.0,99,0.01,,---,1.38,VWS V14.01,2013-09-20 02:54:00,
2013-09-19 21:59:00,60.5,60.2,27.68,SW,219,0.0,3.0,99,0.01,,---,1.38,VWS V14.01,2013-09-20 02:59:00,
2013-09-19 22:04:00,60.5,60.2,27.69,SW,221,1.0,1.0,99,0.01,,---,1.38,VWS V14.01,2013-09-20 03:04:00,
2013-09-19 22:10:00,60.5,60.2,27.69,SSW,202,0.0,6.0,99,0.01,,---,1.38,VWS V14.01,2013-09-20 03:10:00,
2013-09-19 22:15:00,60.5,60.2,27.69,SW,223,0.0,4.0,99,0.01,,---,1.38,VWS V14.01,2013-09-20 03:15:00,
2013-09-19 22:20:00,60.5,60.2,27.69,SSW,198,0.0,3.0,99,0.01,,---,1.38,VWS V14.01,2013-09-20 03:20:00,
2013-09-19 22:25:00,60.5,60.2,27.69,SSW,207,3.0,4.0,99,0.00,,---,1.38,VWS V14.01,2013-09-20 03:25:00,
2013-09-19 22:30:00,60.5,60.2,27.69,SW,216,3.0,3.0,99,0.00,,---,1.38,VWS V14.01,2013-09-20 03:30:00,
2013-09-19 22:35:00,60.5,60.2,27.68,SW,215,2.0,3.0,99,0.00,,---,1.38,VWS V14.01,2013-09-20 03:35:00,
2013-09-19 22:40:00,60.5,60.2,27.68,SW,219,1.0,1.0,99,0.00,,---,1.38,VWS V14.01,2013-09-20 03:40:00,
2013-09-19 22:45:00,60.5,60.2,27.68,SW,219,0.0,1.0,99,0.00,,---,1.38,VWS V14.01,2013-09-20 03:45:00,
2013-09-19 22:50:00,60.5,60.2,27.67,SW,222,1.0,2.0,99,0.00,,---,1.38,VWS V14.01,2013-09-20 03:50:00,
2013-09-19 22:55:00,60.5,60.2,27.67,SSW,202,0.0,3.0,99,0.00,,---,1.38,VWS V14.01,2013-09-20 03:55:00,
2013-09-19 23:00:00,60.5,60.2,27.67,SW,217,3.0,3.0,99,0.00,,---,1.38,VWS V14.01,2013-09-20 04:00:00,
2013-09-19 23:01:00,60.5,60.2,27.67,SW,216,0.0,2.0,99,0.00,,---,1.38,VWS V14.01,2013-09-20 04:01:00,
2013-09-19 23:02:00,60.4,60.1,27.66,SW,229,3.0,6.0,99,0.00,,---,1.38,VWS V14.01,2013-09-20 04:02:00,
2013-09-19 23:03:00,60.5,60.2,27.66,SW,229,4.0,4.0,99,0.00,,---,1.38,VWS V14.01,2013-09-20 04:03:00,
2013-09-19 23:09:00,60.5,60.2,27.66,WSW,237,0.0,4.0,99,0.00,,---,1.38,VWS V14.01,2013-09-20 04:09:00,
2013-09-19 23:14:00,60.5,60.2,27.66,SW,217,0.0,5.0,99,0.00,,---,1.38,VWS V14.01,2013-09-20 04:14:00,
2013-09-19 23:19:00,60.5,60.2,27.66,SW,226,1.0,3.0,99,0.00,,---,1.38,VWS V14.01,2013-09-20 04:19:00,
2013-09-19 23:24:00,60.6,60.3,27.66,SW,236,2.0,2.0,99,0.00,,---,1.38,VWS V14.01,2013-09-20 04:24:00,
2013-09-19 23:29:00,60.6,60.3,27.66,WSW,238,2.0,2.0,99,0.00,,---,1.38,VWS V14.01,2013-09-20 04:29:00,
2013-09-19 23:34:00,60.7,60.4,27.67,WSW,254,2.0,4.0,99,0.00,,---,1.38,VWS V14.01,2013-09-20 04:34:00,
2013-09-19 23:39:00,60.7,60.4,27.67,SSW,209,1.0,1.0,99,0.00,,---,1.38,VWS V14.01,2013-09-20 04:39:00,
2013-09-19 23:45:00,60.8,60.5,27.67,SW,218,3.0,3.0,99,0.00,,---,1.38,VWS V14.01,2013-09-20 04:45:00,
2013-09-19 23:50:00,60.8,60.5,27.67,SW,225,1.0,4.0,99,0.00,,---,1.38,VWS V14.01,2013-09-20 04:50:00,
2013-09-19 23:55:00,60.9,60.6,27.67,SW,229,1.0,1.0,99,0.00,,---,1.38,VWS V14.01,2013-09-20 04:55:00,